Starlink 11119

operational
NORAD ID: 60121 Int'l Des: 2024-118 Owner: SPXS Country: US Constellation: starlink
LEOCIRCULAR

About Starlink 11119

Description loading...

Live Position

Loading 3D Globe...

Upcoming Passes

Altitude History

Altitude vs Time

uPlot chart will show altitude changes over time

Two-Line Element Set

1 60121U 24118J 25304.54860110 -.00000898 00000-0 -25547-5 0 9990
2 60121 53.1586 137.6306 0001086 72.9209 287.1928 15.69704834 77716
Epoch: Oct 31, 2025 • Age: 11 hours

Current Status

Altitude 365.5 km
Velocity 7.70 km/s
Sub-Earth Point 52.91°N, 171.78°E
Launch Date Jun 24, 2024
Age 1.3 years
Type internet

Technical Details

Classification Payload
Mass 960.00 kg
Dry Mass 910.00 kg
Total Mass 960.00 kg
Length 0.30 m
Diameter 4.10 m
Span 29.00 m
Shape Box + pan
Manufacturer SPXS
Bus Type Starlink V2MD
Phase Status In Orbit
Owner/State SPXS/US

Large Constellations

Loading constellations...